{"data":{"norad_id":26720,"epoch":"2026-09-19T21:38:16.969056Z","epoch_age_seconds":62962,"freshness":"FRESH","line1":"1 26720U 01011B   26262.90158529 -.00000009  00000+0  00000+0 0  9995","line2":"2 26720  10.9311  46.5903 0006657 186.6908 352.2508  0.99175488 92910","mean_motion":0.99175488,"eccentricity":0.0006657,"inclination_deg":10.9311,"raan_deg":46.5903,"arg_perigee_deg":186.6908,"mean_anomaly_deg":352.2508,"bstar":0,"rev_number":9291,"period_min":1451.9716807443,"perigee_km":36068.478874681,"apogee_km":36125.029945104,"semimajor_km":42474.891409892,"source":"CELESTRAK","updated_at":"2026-09-20T09:00:13.577113Z"}}